Tracking 35331 objects as of 14-Sep-2026
HD Live streaming from Space Station
objects crossing your sky now

STARLINK-31713

Track STARLINK-31713 now!
10-day predictions
STARLINK-31713 is classified as:


NORAD ID: 59381
Int'l Code: 2024-062H
Launch date: April 2, 2024
Source: United States (US)
Launch site: AIR FORCE WESTERN TEST RANGE (AFWTR)
Your satellite tracking list
Your tracking list is empty




NASA's NSSDC Master Catalog

Two Line Element Set (TLE):
1 59381U 24062H   26256.56753757 -.00003862  00000-0 -10327-3 0  9993
2 59381  53.1588 101.7736 0001687  88.6170 271.5026 15.34383418138415
Source of the keplerian elements: AFSPC